[[{"header":{"parameterUnit":"m.s-1","parameterCategory":1,"la1":30.2991,"la2":30.254,"lo1":-89.0895,"lo2":-89.0444,"dy":0.0017,"dx":0.0017,"nx":28,"ny":28,"refTime":"2025-08-04T03:00:00:Z","depth":0,"parameterNumber":2,"parameterNumberName":"U-component_of_WINDS"},"data":[0,0,0,0,0,0,0,0,0,0,0,0,0,0,0,0,0,0,0,0,0,0,0,0,0,0,0,0,0,0,0,0,0,0,0,0,0,0,0,0,0,0,0,0,0,0,0,0,0,0,0,0,0,0,0,0,0,0,-3.1472,-3.1472,0,-3.1414,-3.1414,-3.1413,-3.1318,-3.1316,-3.1314,-3.1312,-3.1255,-3.1255,-3.1255,0,0,0,0,0,0,0,0,0,0,0,0,0,-3.1502,-3.1502,-3.1472,-3.1472,-3.1471,-3.1414,-3.1414,-3.1413,-3.1318,-3.1316,-3.1314,-3.1312,-3.1255,-3.1255,-3.1255,0,0,0,0,0,0,0,0,0,0,0,0,0,-3.1471,-3.1502,-3.1472,-3.1417,-3.1411,-3.1415,-3.1414,-3.1413,-3.1318,-3.1316,-3.1313,-3.1311,-3.1255,-3.1255,-3.1255,-3.1309,0,0,-3.1256,-3.1256,0,0,0,0,0,0,0,0,-3.1473,-3.147,-3.1426,-3.142,-3.1414,-3.137,-3.1403,-3.1378,-3.1319,-3.1354,-3.1312,-3.1309,-3.1296,-3.1292,-3.1287,-3.1307,-3.1304,-3.1256,-3.1256,-3.1256,-3.1256,0,0,0,0,0,0,0,-3.1475,-3.1472,-3.1449,-3.1425,-3.1418,-3.1395,-3.1388,-3.1398,-3.134,-3.135,-3.1343,-3.1338,-3.1292,-3.1287,-3.1285,-3.1303,-3.1256,-3.1256,-3.1256,-3.1256,-3.1362,-3.1365,0,0,0,0,0,0,-3.1485,-3.1474,-3.1451,-3.1448,-3.1438,-3.1396,-3.1388,-3.1387,-3.134,-3.133,-3.134,-3.1333,-3.1288,-3.1285,-3.1283,-3.1342,-3.1256,-3.1256,-3.1256,-3.136,-3.1363,-3.1366,0,0,0,0,0,0,-3.1486,-3.1484,-3.1454,-3.1459,-3.1453,-3.1399,-3.1398,-3.1387,-3.1382,-3.1332,-3.1321,-3.1346,-3.1286,-3.1283,-3.1303,-3.1338,-3.1256,-3.1256,-3.1357,-3.1361,-3.1365,-3.1461,0,0,0,0,0,0,-3.1488,-3.1485,-3.1505,-3.146,-3.1453,-3.1475,-3.14,-3.1388,-3.1383,-3.1374,-3.1334,-3.1325,-3.1284,-3.1303,-3.1303,-3.1337,-3.1256,-3.1353,-3.1358,-3.1363,-3.1454,-3.1468,-3.148,0,0,0,0,0,-3.1489,-3.1535,-3.1506,-3.1504,-3.1477,-3.1477,-3.1473,-3.1424,-3.1386,-3.1406,-3.1373,-3.1327,-3.1335,-3.1306,-3.1305,-3.134,-3.1351,-3.1357,-3.1363,-3.1449,-3.1465,-3.1479,0,0,0,0,0,0,-3.1586,-3.1528,-3.1496,-3.1529,-3.1508,-3.1461,-3.1484,-3.1443,-3.1433,-3.1425,-3.1365,-3.1357,-3.1385,-3.1364,-3.1333,-3.1389,-3.1335,-3.1342,-3.1401,-3.1416,-3.1429,-3.1433,-3.1257,0,0,0,0,0,-3.1611,-3.1615,-3.1565,-3.1599,-3.159,-3.1539,-3.1537,-3.1501,-3.1477,-3.1469,-3.1437,-3.1417,-3.1415,-3.1415,-3.141,-3.1451,-3.1441,-3.1475,-3.1487,-3.1498,-3.1504,-3.1523,-3.1537,-3.1386,-3.1386,-3.1386,0,0,-3.1663,-3.1632,-3.1639,-3.1617,-3.1597,-3.1603,-3.1532,-3.1542,-3.1546,-3.147,-3.1487,-3.1464,-3.1437,-3.1468,-3.148,-3.1452,-3.1543,-3.1506,-3.1514,-3.1514,-3.1531,-3.1545,-3.1558,-3.139,-3.139,-3.1389,0,0,-3.1761,-3.1738,-3.1763,-3.1744,-3.1715,-3.168,-3.1687,-3.1645,-3.1626,-3.1642,-3.1585,-3.1589,-3.1587,-3.1569,-3.1561,-3.1651,-3.1608,-3.1652,-3.1717,-3.1736,-3.1748,-3.1758,-3.179,-3.1802,-3.1658,-3.1658,-3.1658,0,-3.1829,-3.1835,-3.1782,-3.1794,-3.1786,-3.1718,-3.1742,-3.1727,-3.1698,-3.1694,-3.1663,-3.1658,-3.1635,-3.166,-3.1682,-3.1678,-3.1683,-3.1655,-3.1751,-3.1761,-3.1769,-3.1798,-3.1811,-3.1663,-3.1663,-3.1662,-3.1662,0,-3.1921,-3.1926,-3.195,-3.1922,-3.1917,-3.1936,-3.1885,-3.1887,-3.1851,-3.182,-3.1837,-3.1807,-3.1794,-3.1798,-3.1764,-3.1818,-3.1801,-3.1762,-3.1706,-3.179,-3.1816,-3.1827,-3.1671,-3.1669,-3.1668,-3.1666,0,0,-3.2077,-3.2019,-3.2029,-3.2015,-3.1977,-3.198,-3.1996,-3.1983,-3.1985,-3.1968,-3.1979,-3.1978,-3.1941,-3.1931,-3.1894,-3.1911,-3.1983,-3.1868,-3.1867,-3.189,-3.2041,-3.207,-3.2084,-3.1955,-3.1957,-3.1958,-3.2042,0,-3.2166,-3.2189,-3.2141,-3.2176,-3.2179,-3.2114,-3.2128,-3.2106,-3.2078,-3.2077,-3.2046,-3.2046,-3.1997,-3.199,-3.2004,-3.1972,-3.2013,-3.1965,-3.1964,-3.1965,-3.1972,-3.2098,-3.213,-3.2211,-3.2053,-3.2054,-3.2056,0,-3.2273,-3.226,-3.2295,-3.2254,-3.2253,-3.2267,-3.225,-3.2251,-3.2225,-3.2203,-3.2191,-3.2148,-3.216,-3.2108,-3.2124,-3.2092,-3.2089,-3.2073,-3.2075,-3.2073,-3.2015,-3.2098,-3.2235,-3.2247,-3.2071,-3.207,-3.2069,0,-3.2382,-3.2373,-3.2393,-3.2383,-3.2336,-3.2347,-3.2328,-3.2299,-3.2294,-3.2281,-3.2277,-3.2265,-3.2258,-3.225,-3.2204,-3.2171,-3.2226,-3.217,-3.2207,-3.2209,-3.2221,-3.2221,-3.2359,-3.2221,-3.2221,-3.2221,-3.2221,0,-3.2486,-3.251,-3.2441,-3.2453,-3.2478,-3.2422,-3.2448,-3.2423,-3.2398,-3.2403,-3.2347,-3.2354,-3.2293,-3.2293,-3.2258,-3.2276,-3.2274,-3.2256,-3.2246,-3.226,-3.2263,-3.2257,-3.225,-3.2224,-3.2223,-3.2223,-3.2222,0,-3.2612,-3.2567,-3.2584,-3.2538,-3.2527,-3.2547,-3.2508,-3.2517,-3.2485,-3.2493,-3.2492,-3.2441,-3.2438,-3.2392,-3.2379,-3.2355,-3.2387,-3.2367,-3.2396,-3.2389,-3.2429,-3.2426,-3.2568,-3.2583,-3.2437,-3.2438,-3.244,0,-3.2681,-3.2698,-3.2653,-3.2653,-3.2636,-3.2637,-3.2631,-3.2577,-3.2574,-3.2545,-3.2558,-3.255,-3.2541,-3.2539,-3.2502,-3.2491,-3.247,-3.2521,-3.2468,-3.2482,-3.247,-3.2469,-3.247,-3.2532,-3.2534,-3.2535,-3.2536,0,-3.2807,-3.2784,-3.2778,-3.2764,-3.2759,-3.2746,-3.2729,-3.2732,-3.2673,-3.2672,-3.2668,-3.2661,-3.2647,-3.264,-3.2623,-3.2603,-3.256,-3.2553,-3.2561,-3.2576,-3.2591,-3.2582,-3.2425,-3.255,-3.2549,-3.2548,-3.2547,-3.2546,-3.2906,-3.2917,-3.2888,-3.2883,-3.2864,-3.285,-3.2856,-3.2824,-3.282,-3.2804,-3.2773,-3.2774,-3.2746,-3.2719,-3.2703,-3.2703,-3.2677,-3.2689,-3.2691,-3.2695,-3.2703,-3.2592,-3.2699,-3.2699,-3.2699,-3.2698,-3.2698,0,-3.3029,-3.3006,-3.3002,-3.298,-3.2976,-3.2936,-3.2915,-3.2914,-3.2915,-3.2893,-3.2885,-3.2881,-3.2873,-3.2835,-3.2823,-3.283,-3.281,-3.2829,-3.2828,-3.2824,-3.2727,-3.2721,-3.2845,-3.2845,-3.2845,-3.2845,-3.2845,-3.2845,-3.3092,-3.3109,-3.3082,-3.3089,-3.3066,-3.3066,-3.3058,-3.3044,-3.3026,-3.3023,-3.3016,-3.2991,-3.2963,-3.2948,-3.294,-3.2929,-3.2927,-3.2952,-3.2935,-3.2845,-3.2831,-3.2817,-3.2811,-3.2952,-3.2953,-3.3031,-3.3032,-3.3032]},{"header":{"parameterUnit":"m.s-1","parameterCategory":1,"la1":30.2991,"la2":30.254,"lo1":-89.0895,"lo2":-89.0444,"dy":0.0017,"dx":0.0017,"nx":28,"ny":28,"refTime":"2025-08-04T03:00:00:Z","depth":0,"parameterNumber":3,"parameterNumberName":"V-component_of_WINDS"},"data":[0,0,0,0,0,0,0,0,0,0,0,0,0,0,0,0,0,0,0,0,0,0,0,0,0,0,0,0,0,0,0,0,0,0,0,0,0,0,0,0,0,0,0,0,0,0,0,0,0,0,0,0,0,0,0,0,0,0,0.563,0.5629,0,0.554,0.5539,0.5538,0.551,0.5511,0.5511,0.5512,0.5414,0.5411,0.5408,0,0,0,0,0,0,0,0,0,0,0,0,0,0.5774,0.5771,0.563,0.5629,0.5628,0.554,0.5539,0.5538,0.551,0.5511,0.5511,0.5512,0.5415,0.5411,0.5408,0,0,0,0,0,0,0,0,0,0,0,0,0,0.57,0.577,0.563,0.5603,0.56,0.5541,0.5539,0.5537,0.551,0.5511,0.5511,0.5512,0.5416,0.5412,0.5407,0.5366,0,0,0.5393,0.5391,0,0,0,0,0,0,0,0,0.5704,0.5695,0.5608,0.5605,0.5601,0.5537,0.5554,0.548,0.551,0.5544,0.5512,0.5512,0.5454,0.5446,0.5428,0.5361,0.5357,0.5393,0.539,0.5388,0.5387,0,0,0,0,0,0,0,0.5709,0.5699,0.5594,0.5607,0.5603,0.5595,0.5585,0.554,0.5496,0.5541,0.5539,0.5529,0.5452,0.5432,0.5425,0.5355,0.5393,0.5389,0.5386,0.5384,0.5252,0.5252,0,0,0,0,0,0,0.572,0.5703,0.5597,0.5591,0.5656,0.5592,0.5581,0.5557,0.5497,0.5488,0.5529,0.5528,0.544,0.5431,0.5422,0.537,0.5388,0.5384,0.5381,0.5253,0.5252,0.5251,0,0,0,0,0,0,0.5723,0.571,0.5601,0.5647,0.5632,0.5589,0.5562,0.5555,0.5535,0.5487,0.5479,0.5517,0.544,0.5428,0.5381,0.5367,0.5382,0.5378,0.5254,0.5253,0.5252,0.5267,0,0,0,0,0,0,0.5727,0.5712,0.5696,0.5647,0.563,0.5562,0.5561,0.5553,0.5528,0.5527,0.5474,0.5465,0.544,0.5388,0.5376,0.5361,0.5374,0.5255,0.5254,0.5252,0.5267,0.5266,0.5265,0,0,0,0,0,0.5732,0.5702,0.5695,0.5683,0.5609,0.5561,0.5551,0.5524,0.5527,0.5511,0.548,0.5467,0.5371,0.5383,0.537,0.5353,0.5256,0.5254,0.5252,0.5268,0.5266,0.5265,0,0,0,0,0,0,0.5748,0.5695,0.5687,0.564,0.5606,0.5557,0.5535,0.5523,0.5485,0.5485,0.5451,0.5439,0.5395,0.5369,0.5384,0.5311,0.5313,0.5308,0.5329,0.5327,0.5326,0.5333,0.5371,0,0,0,0,0,0.5747,0.5713,0.5668,0.5631,0.5615,0.5578,0.5556,0.5538,0.55,0.5485,0.5451,0.5413,0.5375,0.535,0.5311,0.5264,0.5252,0.5246,0.5245,0.5244,0.524,0.5215,0.5212,0.5246,0.5246,0.5246,0,0,0.5742,0.5709,0.5689,0.5633,0.5605,0.557,0.5566,0.5528,0.5502,0.5478,0.5432,0.5407,0.5363,0.5316,0.5293,0.5293,0.5229,0.5242,0.5242,0.5238,0.5213,0.521,0.5207,0.5244,0.5245,0.5245,0,0,0.5716,0.5688,0.5655,0.5627,0.5585,0.5562,0.5554,0.5507,0.549,0.5444,0.5426,0.5394,0.5328,0.5298,0.5274,0.5241,0.5228,0.523,0.5224,0.5199,0.5197,0.5194,0.5183,0.5179,0.5226,0.5226,0.5226,0,0.5715,0.5663,0.5638,0.5603,0.558,0.556,0.5526,0.55,0.5447,0.543,0.5431,0.535,0.5319,0.5265,0.5258,0.5239,0.5229,0.5234,0.52,0.5197,0.5194,0.5183,0.5178,0.5227,0.5227,0.5227,0.5226,0,0.5665,0.563,0.5608,0.556,0.5534,0.5499,0.5469,0.5445,0.5431,0.5407,0.5361,0.5324,0.5279,0.5265,0.5249,0.521,0.5211,0.5207,0.5207,0.5192,0.5181,0.5176,0.5227,0.5227,0.5227,0.5227,0,0,0.5642,0.5585,0.5577,0.5556,0.551,0.5482,0.5447,0.5406,0.5386,0.5351,0.5321,0.5268,0.5264,0.5237,0.5218,0.5197,0.5175,0.5195,0.5193,0.5192,0.513,0.5133,0.5129,0.5167,0.5166,0.5165,0.5134,0,0.561,0.5549,0.5528,0.5477,0.5445,0.5428,0.5397,0.5366,0.5344,0.5312,0.5287,0.525,0.5248,0.5232,0.521,0.5182,0.5161,0.5184,0.5137,0.5136,0.5148,0.5123,0.5126,0.5098,0.5129,0.5128,0.5128,0,0.5564,0.5532,0.5479,0.5439,0.5425,0.5398,0.536,0.5331,0.5295,0.528,0.5253,0.5236,0.5199,0.5204,0.5153,0.5169,0.5148,0.5132,0.513,0.5124,0.513,0.5115,0.5088,0.5084,0.5121,0.5121,0.5122,0,0.5553,0.5496,0.5458,0.5441,0.5394,0.5376,0.5355,0.532,0.5298,0.5264,0.5249,0.521,0.5189,0.5159,0.5133,0.5139,0.5084,0.5087,0.507,0.5071,0.5057,0.5058,0.5027,0.5046,0.5046,0.5046,0.5046,0,0.5519,0.5487,0.5453,0.5429,0.5394,0.5369,0.5334,0.5312,0.5282,0.5253,0.5236,0.5209,0.5176,0.5145,0.5124,0.5085,0.5075,0.5062,0.5057,0.5063,0.5065,0.5048,0.5049,0.5045,0.5045,0.5046,0.5046,0,0.55,0.5476,0.5433,0.5394,0.5384,0.5359,0.5325,0.5301,0.528,0.5244,0.5234,0.52,0.5163,0.5135,0.5085,0.5071,0.503,0.5024,0.5043,0.504,0.5025,0.5027,0.498,0.4973,0.4998,0.4998,0.4998,0,0.5479,0.5455,0.5415,0.5396,0.5376,0.5345,0.5323,0.5299,0.5276,0.5236,0.5217,0.5179,0.5148,0.5089,0.5059,0.5022,0.5015,0.5002,0.5009,0.5017,0.5015,0.5016,0.5014,0.5,0.5,0.5,0.5,0,0.5445,0.5435,0.5405,0.5372,0.5347,0.5319,0.529,0.5275,0.5246,0.5221,0.5185,0.5161,0.5113,0.5076,0.5037,0.5014,0.5002,0.4998,0.4992,0.4998,0.501,0.5003,0.5039,0.4999,0.4999,0.4999,0.4999,0.4999,0.5424,0.5403,0.5372,0.5339,0.5317,0.5291,0.5268,0.5245,0.5215,0.5176,0.5163,0.5126,0.5093,0.5039,0.5017,0.4987,0.4986,0.4978,0.4975,0.4973,0.4974,0.5016,0.4979,0.4979,0.4979,0.4979,0.4979,0,0.5389,0.5369,0.534,0.5303,0.5278,0.5272,0.5241,0.522,0.5188,0.5159,0.513,0.5089,0.5054,0.5023,0.4986,0.4968,0.4962,0.4959,0.496,0.4955,0.4977,0.4985,0.4965,0.4965,0.4965,0.4965,0.4965,0.4965,0.5367,0.5331,0.5319,0.5272,0.5252,0.5217,0.52,0.5176,0.5154,0.511,0.5082,0.5063,0.5034,0.4996,0.4963,0.4955,0.4942,0.4941,0.4931,0.4952,0.4953,0.4955,0.4963,0.4939,0.4939,0.4912,0.4912,0.4912]}]]